Wind_Speed
43 42 42 43 43 41 40 40 40 41 41 40 38 37 37 37 37 36 36 35 35 37 40 41 41 42 42 42 41 40 40 40 39 39 38 36 36 36 34 32 30 30 31 30 31 33 35 36 36 36 37 37 38 38 39 40 40 38 35 31 29 27 25 23 21 21 20 20 21 21 20 18 17 16 14 14 14 14 14 15 15 16 18 19 19
44 43 42 42 42 41 40 39 39 40 41 40 39 38 38 37 36 35 35 34 35 38 40 42 42 42 42 40 39 39 38 38 37 37 36 36 36 35 32 30 29 30 31 30 31 33 35 35 35 36 37 38 39 39 39 40 39 36 33 30 28 26 24 22 21 21 21 21 22 22 21 19 18 17 15 15 15 15 16 16 16 17 18 19 19
44 43 42 42 40 39 38 38 37 38 40 40 39 38 38 36 35 34 34 34 36 37 39 41 41 40 39 39 38 37 36 35 34 35 35 35 34 33 30 29 29 30 31 30 32 33 34 35 35 36 38 39 39 39 39 39 38 35 32 29 27 26 24 22 21 21 21 21 22 22 22 20 19 18 17 16 16 16 16 16 16 16 17 18 18
41 40 40 39 38 38 39 39 40 41 42 39 36 36 37 36 34 33 33 36 36 36 37 38 37 37 37 36 35 34 33 33 33 34 35 35 33 32 29 29 29 30 30 30 32 33 33 34 36 37 39 38 38 39 39 39 36 34 30 28 27 25 23 22 21 22 22 21 22 23 23 22 20 19 18 18 17 17 16 16 16 16 17 18 18
42 41 40 38 38 40 41 41 42 42 41 37 35 35 36 36 33 31 33 35 34 34 34 33 33 34 35 34 34 34 34 33 34 34 34 34 33 30 28 28 29 30 30 30 32 33 34 35 37 38 37 37 38 39 39 38 35 33 30 27 26 25 23 21 21 22 22 22 22 23 24 24 22 21 20 19 18 17 16 16 17 17 17 18 19
47 44 41 39 38 39 40 39 41 41 39 37 36 37 38 37 32 31 33 33 33 33 32 30 31 34 36 37 37 37 36 36 35 34 34 34 32 29 27 28 29 31 31 31 32 33 34 36 37 37 36 36 38 39 39 37 34 32 29 27 25 24 22 21 21 22 22 22 22 22 24 25 24 22 21 21 20 19 17 16 17 17 18 18 18
49 46 43 40 39 38 38 38 40 41 40 38 39 38 35 33 31 31 32 33 34 34 33 34 36 38 38 37 37 37 36 36 35 34 33 33 31 28 27 27 29 31 31 31 32 33 35 36 36 36 35 36 38 39 38 36 34 32 29 26 25 24 22 21 21 22 22 22 22 22 23 25 25 25 24 23 22 20 18 18 18 18 18 18 18
49 48 45 43 42 42 40 40 41 41 41 40 39 33 29 30 32 33 33 36 37 36 36 37 40 40 37 35 35 34 35 35 34 33 32 31 29 27 27 27 29 31 31 31 32 33 34 36 36 35 35 37 38 39 37 35 33 31 29 26 24 23 22 21 21 22 22 22 22 22 22 23 25 26 26 25 23 22 20 19 19 19 18 18 18
52 51 50 48 46 46 45 46 45 44 42 40 38 35 34 36 36 36 36 37 37 38 37 38 41 38 33 32 32 33 33 33 33 32 31 30 29 27 27 28 30 32 31 31 32 33 35 36 35 34 35 37 38 38 36 34 33 31 28 26 24 23 22 21 20 21 22 22 22 22 22 22 23 26 28 27 26 24 22 21 20 19 19 18 17
56 55 54 52 50 50 49 49 48 46 43 42 42 42 41 40 38 38 38 38 38 40 39 40 39 32 28 29 30 32 32 32 32 32 31 29 28 28 28 29 31 32 32 32 33 34 36 36 35 34 35 37 38 37 35 33 32 30 28 25 24 22 22 21 20 21 21 22 22 22 21 20 21 23 26 28 28 26 25 22 21 20 19 18 17
59 58 57 55 54 53 52 51 50 48 45 44 43 42 42 41 39 40 40 40 42 42 41 39 33 26 26 28 29 30 31 31 31 31 31 30 29 29 29 29 31 33 32 32 33 36 37 36 35 35 35 37 37 36 34 32 31 29 27 25 23 22 21 21 20 20 21 21 22 22 21 20 20 21 23 26 28 28 27 24 22 21 20 18 18
59 59 57 57 56 55 54 52 50 49 47 44 42 41 42 42 41 42 42 41 41 38 34 29 24 25 27 27 28 29 30 31 31 31 31 30 30 29 29 30 32 34 33 32 34 36 37 36 35 35 35 36 36 35 33 31 30 29 26 24 23 22 21 21 21 20 21 21 22 22 23 22 21 21 21 23 26 27 27 24 22 21 20 18 18
57 57 56 55 56 56 56 54 52 51 50 46 44 43 42 43 44 42 41 39 37 32 29 26 24 27 27 26 27 28 30 31 31 31 31 31 30 30 29 30 32 34 34 33 34 36 36 35 35 34 35 36 35 34 32 31 30 28 26 24 22 21 21 21 20 20 20 20 21 22 23 23 22 22 22 21 22 24 24 23 21 21 20 19 19
56 55 55 54 52 53 54 56 57 55 52 49 47 46 45 45 44 42 40 39 36 33 33 32 29 29 27 25 25 27 30 32 32 33 33 32 31 30 29 30 32 34 34 33 34 35 35 35 35 34 35 35 34 33 31 30 29 28 26 24 23 22 21 20 20 20 19 20 21 22 23 23 23 22 22 21 21 22 22 21 21 21 20 20 19
55 55 56 54 51 47 47 48 52 55 53 51 49 49 48 44 43 42 40 38 38 36 36 35 32 30 25 23 23 26 30 32 34 35 35 35 33 30 29 30 31 33 34 33 33 35 35 35 35 34 35 35 34 33 32 30 29 27 26 25 23 22 21 20 20 19 18 19 20 21 22 23 23 22 22 21 21 20 20 21 21 22 21 20 20
54 55 56 56 54 47 42 40 42 48 51 51 51 50 48 44 42 41 38 38 38 36 36 36 33 28 24 23 25 29 30 31 33 35 36 36 35 32 29 30 31 33 35 33 33 34 35 35 34 34 35 34 33 32 32 31 30 28 26 25 24 22 21 20 20 19 18 19 20 21 22 23 22 21 21 22 22 20 20 21 21 22 21 21 20
54 55 55 53 53 51 48 45 44 46 48 49 50 49 48 45 41 39 37 38 37 35 34 34 33 29 27 28 31 33 32 30 31 34 36 37 36 34 31 31 31 33 36 35 33 34 35 35 34 34 34 34 32 31 31 31 30 28 26 25 25 23 21 21 20 20 19 19 20 21 22 22 22 21 21 22 23 22 20 20 22 22 22 21 20
55 56 57 52 49 53 56 54 53 52 50 50 50 50 49 46 42 40 39 38 38 37 35 33 32 30 30 34 37 36 34 31 31 33 35 38 37 35 33 32 32 33 36 36 34 34 35 36 34 33 34 34 32 31 30 30 29 28 26 25 25 24 23 21 21 20 19 20 20 21 21 22 22 21 21 22 23 23 22 20 22 23 23 22 21
56 57 58 56 52 53 56 57 56 55 53 52 51 50 49 47 44 42 42 42 41 38 36 33 31 30 31 35 39 39 36 33 31 32 34 37 38 37 35 33 32 32 36 37 36 35 36 36 34 33 34 34 33 32 30 29 28 27 26 25 25 25 24 22 21 21 20 20 21 21 21 22 22 21 21 21 22 23 23 21 22 23 23 22 20
56 58 59 60 58 56 57 56 55 53 52 53 53 51 50 49 47 44 43 42 41 39 36 34 33 33 34 37 40 41 39 35 33 33 34 36 39 39 37 35 33 32 35 38 38 36 36 35 34 33 34 34 34 33 32 30 28 27 26 24 24 24 24 23 22 21 21 21 21 21 22 22 22 21 20 20 21 22 22 21 21 23 23 22 20
54 56 59 62 62 60 59 57 54 52 50 50 52 51 51 50 50 48 44 41 40 39 38 36 36 38 37 38 41 43 40 36 34 34 35 36 38 40 39 37 35 33 34 37 39 38 36 35 33 33 34 34 34 34 33 32 30 28 27 25 24 24 24 24 22 21 20 21 21 22 22 22 22 21 20 19 19 20 20 20 21 22 22 22 20
60 57 57 60 64 64 62 61 58 56 53 51 52 52 51 50 50 50 46 42 41 40 40 39 39 41 41 40 41 42 40 37 35 35 37 38 38 39 39 38 36 34 34 36 39 39 37 35 33 33 34 34 34 34 34 33 32 30 28 26 24 24 25 24 23 22 20 20 21 22 22 22 23 21 20 19 18 17 17 19 20 21 22 21 21
66 62 59 59 62 65 64 63 61 60 58 57 57 56 55 54 53 52 49 46 43 41 41 41 42 45 45 42 41 41 40 37 36 36 39 39 38 38 38 37 35 34 34 35 37 38 38 35 32 33 34 34 34 34 35 34 33 32 30 28 25 25 25 25 24 23 21 21 21 22 23 22 22 22 20 19 18 17 16 17 19 21 21 21 21
71 68 65 62 61 62 63 62 61 59 59 58 58 58 57 57 56 53 52 50 48 46 46 46 47 49 48 44 41 41 39 38 36 37 39 38 37 37 36 35 35 36 35 34 35 36 36 35 33 33 34 34 35 35 35 35 34 33 32 29 27 25 26 26 25 24 23 22 22 23 23 23 22 22 20 18 18 18 17 18 20 21 22 22 23
74 73 71 66 62 61 61 61 61 60 58 58 57 57 57 56 56 54 53 52 53 54 54 53 52 51 49 45 42 40 38 37 36 37 38 37 36 35 35 35 36 38 38 35 35 35 34 34 34 33 34 34 35 36 36 36 34 34 33 31 28 26 26 26 26 25 25 24 23 23 24 24 23 22 21 19 19 18 19 19 21 22 23 24 24
68 71 73 71 66 62 60 61 62 61 59 59 58 57 58 56 55 54 53 53 54 55 56 56 53 51 48 45 42 39 36 35 35 35 36 36 35 34 34 35 37 39 40 38 36 34 31 32 33 34 34 34 34 35 37 37 35 34 35 32 28 27 27 26 26 26 26 26 25 24 24 24 24 23 22 21 20 20 20 20 21 22 23 24 25
61 65 70 73 72 67 62 62 64 62 59 59 60 60 58 56 53 53 53 54 54 54 54 53 52 50 47 43 40 38 36 35 34 32 33 34 33 33 34 35 37 39 40 39 36 34 30 29 31 33 35 35 34 35 37 38 36 34 35 33 29 27 27 27 27 26 27 26 26 25 24 25 25 24 23 22 22 21 21 21 21 22 23 24 25
58 61 65 68 72 72 68 66 67 63 59 56 57 60 58 54 51 51 50 52 52 53 52 51 50 48 46 43 40 39 38 37 34 31 31 32 32 33 34 35 37 38 39 39 36 33 29 28 29 31 34 35 35 35 36 38 38 36 35 33 30 27 27 28 27 27 27 26 26 26 25 25 25 25 25 24 23 23 22 21 21 21 22 24 24
55 57 60 64 65 69 70 71 71 69 65 59 56 56 55 52 50 50 49 50 50 51 51 51 49 47 46 44 41 40 39 36 33 31 31 32 32 32 34 35 36 37 38 37 35 32 29 28 29 31 33 35 36 36 37 38 38 37 36 34 31 29 28 29 29 28 28 27 26 26 26 26 25 25 26 26 25 25 24 23 22 22 22 23 23
56 55 58 63 62 64 67 70 73 73 71 67 62 58 53 49 48 48 48 49 50 51 52 52 49 48 47 44 40 39 37 34 31 30 31 32 31 32 33 34 35 36 36 35 34 32 30 29 30 31 33 34 36 37 38 39 39 37 36 33 31 30 30 29 29 28 28 27 26 26 26 26 26 26 27 27 28 27 26 25 24 23 23 23 23
62 58 59 63 62 62 64 67 70 72 73 70 67 63 56 49 45 45 46 47 49 50 52 51 48 48 47 43 40 37 33 32 30 28 30 31 31 32 33 34 35 35 34 33 33 32 31 30 31 32 32 34 36 38 38 40 39 37 35 32 31 31 31 30 29 29 28 27 27 26 26 27 26 26 27 28 29 28 27 26 26 25 24 23 23
68 61 62 62 60 60 62 63 65 68 70 70 70 67 62 56 49 45 43 44 45 47 49 48 47 47 45 42 40 37 32 31 30 29 30 31 31 32 33 33 34 34 33 33 33 32 31 31 31 32 33 34 36 39 40 39 39 37 34 31 31 31 32 31 30 29 29 29 28 28 27 27 27 27 27 28 29 28 28 27 27 26 25 25 24
73 66 63 61 58 59 60 60 61 62 64 66 67 66 63 60 56 50 43 41 43 45 45 45 45 44 43 42 40 38 35 32 31 31 31 31 32 33 33 33 32 33 33 33 32 32 31 31 32 32 34 35 37 40 41 40 38 37 34 31 30 31 32 32 31 30 30 30 30 29 28 28 28 28 28 28 29 29 28 28 27 26 26 26 25
69 66 63 60 57 57 58 59 58 59 60 60 62 62 61 59 58 54 46 41 42 44 43 43 43 42 42 40 37 38 38 35 33 33 33 33 33 33 32 32 32 32 33 33 32 32 32 32 32 33 35 36 38 41 43 42 39 36 34 31 31 32 33 34 33 31 30 31 32 32 30 30 29 29 28 28 29 29 29 28 28 27 26 26 26
59 61 61 59 56 53 54 58 59 58 57 58 58 58 58 57 57 55 49 42 41 43 42 40 41 40 39 39 37 37 38 39 37 36 35 35 34 33 32 31 32 32 32 33 32 33 33 33 33 35 36 38 40 43 44 43 40 35 33 32 31 31 33 35 34 32 31 31 33 33 32 31 31 30 29 28 29 29 29 29 28 28 27 26 26
54 57 60 57 54 51 49 52 57 58 58 57 56 55 55 55 55 55 52 47 43 42 41 40 40 39 39 42 43 40 40 43 42 39 37 36 35 33 32 31 32 33 32 32 33 33 34 34 35 36 37 38 41 44 45 43 40 35 34 34 33 32 32 34 35 34 33 32 33 34 34 33 33 32 31 30 29 29 29 29 29 28 28 27 27
54 54 55 52 53 54 49 45 48 53 57 58 55 54 53 52 52 53 53 51 49 47 45 45 45 44 45 50 52 47 43 45 44 40 38 36 35 34 32 32 32 33 33 33 34 34 35 36 37 37 38 39 42 45 45 43 40 36 34 34 34 33 33 34 35 34 34 33 33 34 34 34 34 34 33 32 30 29 29 30 30 29 29 28 28
58 55 52 49 51 56 53 47 45 45 51 55 55 54 52 51 50 48 49 50 51 51 50 50 50 50 49 54 57 50 42 43 42 39 37 35 34 33 32 32 32 33 33 34 35 36 36 37 38 38 38 41 44 45 45 43 39 37 35 34 33 33 33 33 35 35 34 34 33 34 34 35 35 35 34 33 31 30 30 30 30 30 29 29 28
65 59 55 51 49 51 51 48 45 41 45 51 54 54 51 49 48 46 44 45 47 48 49 50 50 50 49 52 54 46 40 40 39 38 37 34 33 32 32 32 33 33 33 35 36 37 38 39 39 38 39 42 44 45 45 42 40 38 36 34 32 32 32 32 34 34 34 34 34 35 35 35 36 36 35 34 32 31 30 30 30 30 30 30 29
68 60 56 53 52 52 48 44 43 41 41 44 47 50 50 48 47 45 43 43 44 44 44 45 45 46 46 47 46 40 37 38 38 38 36 32 32 31 32 32 32 33 34 36 37 38 40 40 39 39 41 43 45 46 44 42 40 39 36 35 33 32 31 31 32 34 34 34 34 35 35 35 36 37 36 35 34 32 32 31 31 30 30 30 30
73 66 61 55 54 58 53 45 44 40 35 35 39 43 47 48 47 46 44 44 43 42 41 41 42 43 43 43 40 37 36 37 37 36 33 30 30 31 32 32 32 33 35 36 38 40 41 39 38 40 42 45 46 45 44 42 41 39 37 36 34 31 29 29 30 32 32 33 34 35 36 36 36 37 37 37 36 34 33 33 32 31 30 30 31
82 77 71 62 55 58 56 49 45 41 34 32 33 36 40 44 47 47 45 45 43 42 40 39 40 41 41 41 38 36 36 36 35 33 30 28 29 31 32 32 33 34 35 37 40 40 38 37 39 41 44 46 45 43 43 42 40 38 37 35 33 31 28 27 28 30 31 31 32 33 35 37 37 37 38 38 37 36 35 34 34 32 30 30 31
82 77 73 67 60 59 56 51 49 44 37 35 33 33 35 38 41 42 43 44 43 42 41 40 41 41 41 40 38 37 36 35 34 30 26 27 30 32 32 33 34 34 36 39 39 36 35 37 40 43 45 46 43 41 41 41 39 36 34 32 30 28 27 25 25 27 28 29 30 30 33 35 37 37 38 38 38 37 36 35 35 33 32 31 31
77 74 72 66 60 62 61 56 54 48 39 38 39 38 36 36 37 37 37 38 39 41 41 41 42 42 41 39 37 35 33 33 31 25 24 28 32 33 34 34 34 35 38 38 35 34 36 39 42 44 45 44 41 39 39 38 35 32 30 29 27 26 25 24 24 25 26 27 27 28 30 33 35 37 38 38 38 38 38 37 36 35 33 32 32
77 73 73 68 58 59 64 64 60 53 46 43 43 41 39 37 36 34 33 34 34 39 43 43 43 42 41 38 34 32 31 29 26 23 25 30 33 35 35 34 35 37 36 33 33 35 38 40 43 44 44 42 40 39 37 34 31 29 27 27 26 26 25 24 24 24 25 26 25 24 27 29 32 35 37 38 38 38 39 39 39 37 36 35 34
81 74 71 72 67 60 62 68 68 62 56 50 45 42 41 40 38 35 35 34 35 39 43 43 41 40 39 37 34 32 28 24 23 25 27 30 34 35 35 35 36 35 31 31 33 36 38 41 43 42 42 41 40 38 34 29 27 26 25 26 26 26 25 24 24 23 23 23 22 22 22 24 28 32 34 35 36 37 39 39 40 39 38 37 35
85 79 69 68 73 69 63 66 70 67 60 53 46 42 41 40 39 38 38 37 36 38 39 40 40 39 38 37 35 31 25 23 26 28 29 31 33 35 35 35 33 29 29 32 35 37 39 42 42 40 40 40 38 35 30 26 26 26 25 25 24 23 23 22 22 20 19 18 18 18 18 19 25 28 29 31 33 34 37 39 39 40 39 38 37
87 82 71 62 67 73 69 63 64 64 60 52 46 42 39 38 37 37 37 37 37 36 36 37 39 39 39 38 34 30 27 27 29 30 30 31 33 34 34 32 29 28 31 34 36 38 41 41 40 39 39 38 35 30 26 26 25 25 24 21 20 19 18 18 18 15 13 12 13 13 13 16 22 24 25 28 29 30 32 34 36 38 39 39 39
89 82 73 62 62 70 71 67 64 61 57 51 45 41 38 36 35 35 35 35 36 35 34 35 37 40 40 36 33 30 29 29 29 30 31 30 31 31 30 29 29 31 34 35 37 39 40 39 38 39 38 35 30 27 26 25 23 23 20 17 17 17 15 15 15 12 9 9 11 11 11 13 19 22 24 28 29 28 28 30 32 33 35 36 37
91 83 76 68 63 65 66 65 64 58 53 47 42 40 38 36 35 35 34 34 35 34 33 34 37 39 38 34 32 31 29 29 29 30 31 29 29 29 29 30 31 33 35 36 38 39 38 38 38 38 35 30 27 26 26 24 22 20 18 15 16 17 15 14 14 13 11 10 12 14 14 15 18 22 24 27 28 26 25 27 30 31 32 33 35
87 81 76 67 62 65 63 61 61 56 50 44 40 39 38 38 38 37 36 35 35 34 32 33 36 36 35 33 33 32 30 30 30 31 31 30 30 31 32 33 34 35 36 37 38 38 36 36 36 34 30 27 26 26 25 22 20 19 17 15 15 15 13 12 14 13 11 12 14 16 18 18 18 20 20 22 24 23 23 25 27 28 29 30 32
Wind_Direction
254 256 256 257 258 260 262 263 264 264 264 266 270 274 278 280 283 286 289 293 297 299 297 295 294 295 296 297 299 301 303 304 306 308 311 314 316 318 318 318 316 311 309 311 310 309 309 310 311 312 314 317 318 320 320 321 319 317 314 312 308 301 294 284 271 259 253 252 253 254 256 257 258 258 258 257 260 266 272 278 286 293 299 302 305
252 253 255 258 260 260 260 261 261 261 262 265 269 272 275 279 282 287 290 294 298 298 298 297 295 295 296 297 299 301 302 303 306 308 311 314 316 318 318 317 314 309 308 311 310 309 310 310 311 313 316 318 319 320 320 320 318 316 314 310 306 300 292 282 269 257 252 252 253 255 256 257 258 259 260 259 260 266 273 281 290 297 301 302 306
251 254 258 261 261 259 257 257 259 261 264 267 269 272 276 278 281 287 292 295 295 295 298 298 296 295 296 297 299 301 303 304 307 309 311 314 316 317 316 315 312 308 308 310 310 310 310 311 312 315 317 319 320 320 320 320 317 315 313 309 304 298 290 280 268 257 253 252 253 255 257 258 259 260 261 261 263 267 275 285 294 301 301 301 306
252 256 259 259 257 255 254 255 258 262 265 267 269 273 276 278 281 287 291 291 290 294 299 297 295 295 296 298 300 302 304 305 308 309 311 313 316 316 314 313 310 307 308 310 310 310 311 312 314 316 318 319 319 320 320 319 317 315 312 308 303 296 289 279 267 258 254 253 254 256 258 259 260 260 262 263 265 269 278 288 298 303 301 300 307
253 255 254 253 254 255 255 255 257 260 262 264 268 272 274 276 279 285 288 288 290 295 296 295 296 297 297 299 301 302 303 305 307 308 309 311 314 313 311 310 309 306 307 309 310 310 311 313 314 317 319 319 319 320 320 319 317 315 312 307 301 295 288 278 266 259 256 255 255 256 258 260 260 260 262 263 265 269 278 290 299 303 300 301 308
253 254 252 250 251 254 256 257 257 258 259 262 265 267 271 275 279 282 283 285 289 291 290 292 297 300 300 299 299 300 301 303 305 306 307 309 311 309 307 307 306 305 306 308 309 311 311 313 315 318 319 319 319 320 320 319 317 315 311 306 300 294 287 278 266 258 257 258 258 258 258 260 261 262 261 262 264 268 278 291 299 301 298 302 309
252 253 251 247 246 250 253 255 255 256 258 262 264 267 273 275 275 275 276 283 287 287 287 290 297 302 302 299 299 299 300 301 303 304 304 306 307 305 303 304 303 303 306 308 309 311 312 314 317 319 319 319 320 321 321 320 318 316 311 305 299 292 287 278 267 259 258 259 260 260 260 261 262 263 262 262 263 267 277 290 298 298 296 301 308
250 250 249 247 246 248 250 250 252 255 258 263 266 266 267 266 266 266 272 281 284 285 287 289 296 301 300 298 298 299 300 301 302 302 302 303 303 301 299 301 301 301 305 308 310 311 313 316 318 319 319 320 321 321 322 321 319 316 311 305 299 292 286 279 268 261 259 260 262 263 264 264 263 263 263 264 264 266 273 285 294 293 293 298 305
247 248 249 249 249 250 250 251 252 255 258 261 262 261 260 265 267 266 271 279 281 284 284 288 295 299 298 297 297 298 300 300 301 301 300 300 299 297 297 298 298 300 304 307 310 312 315 317 318 319 319 320 321 323 323 322 320 316 310 304 299 292 287 280 269 261 260 261 263 265 267 269 267 265 264 265 265 266 270 280 289 288 288 295 301
245 248 249 251 251 252 253 254 254 254 256 258 261 263 264 268 268 265 270 275 277 279 282 288 293 296 298 296 295 297 299 299 300 299 298 297 295 295 295 296 296 298 302 306 308 312 314 317 318 317 318 320 322 323 324 322 320 316 310 304 299 293 288 283 272 262 260 261 263 266 268 271 272 270 267 265 264 265 268 275 282 283 284 290 297
245 248 250 251 251 252 253 256 255 253 255 258 261 265 265 266 265 265 269 271 272 276 282 287 288 294 298 294 294 297 298 299 299 298 297 295 293 293 295 295 295 297 301 305 307 310 313 316 317 317 318 320 322 324 324 322 320 316 309 303 299 294 289 285 277 266 261 261 263 264 266 270 273 274 272 267 264 263 266 271 277 278 280 286 292
245 246 248 250 251 251 252 253 253 251 253 255 256 258 261 262 263 266 270 270 273 278 282 282 286 295 296 293 294 297 299 300 299 298 297 295 294 294 295 295 295 297 301 305 306 308 311 315 316 316 317 320 323 325 324 323 320 315 308 303 299 294 290 287 281 272 265 263 263 265 267 270 273 276 277 273 266 263 263 267 272 273 275 281 287
243 244 246 248 250 251 251 251 250 251 252 252 252 252 254 258 262 266 268 269 271 274 274 275 285 293 293 293 296 300 301 300 300 299 298 297 296 295 295 295 295 297 300 304 306 307 311 315 315 314 317 320 324 325 325 323 320 316 308 303 298 294 290 288 285 278 272 269 268 269 271 273 275 276 278 278 271 265 262 264 267 269 271 276 283
242 244 245 246 248 250 251 251 250 251 250 251 251 252 254 257 260 262 264 266 268 269 271 272 279 287 289 291 298 304 304 301 300 299 299 299 297 297 296 295 295 297 300 303 305 307 311 314 314 314 316 320 324 326 325 323 320 316 309 303 298 295 291 289 287 283 277 273 272 272 274 275 275 275 276 278 275 268 262 261 263 266 269 274 280
242 244 245 245 244 245 249 251 250 249 248 250 252 254 257 257 256 257 261 265 268 271 272 271 274 281 285 288 297 304 304 301 299 298 298 298 298 297 296 295 296 297 299 302 304 307 310 313 313 313 316 321 325 327 326 324 321 316 309 303 298 295 293 291 289 285 280 274 272 272 273 274 273 272 273 275 274 269 262 259 261 264 267 271 278
242 244 245 244 243 241 242 245 246 247 246 248 251 253 256 255 253 254 259 264 269 272 272 271 271 274 278 282 291 297 300 301 298 297 296 296 297 295 293 294 296 297 298 301 304 306 309 311 312 312 315 320 325 327 327 325 322 317 310 303 298 295 294 291 288 284 280 275 272 272 273 274 274 273 273 274 273 270 262 258 259 262 265 269 275
243 244 244 243 243 240 237 238 242 246 247 248 250 252 254 255 255 257 260 264 268 270 270 270 266 266 271 278 286 291 293 298 298 296 294 294 294 293 291 292 295 297 298 301 304 306 307 309 310 311 314 319 323 326 327 326 323 318 310 303 297 294 293 291 287 285 283 279 275 274 276 278 280 279 278 276 274 272 265 257 257 260 263 268 274
243 243 243 239 239 241 242 242 246 250 252 252 252 253 254 255 257 259 260 262 266 268 268 267 264 265 273 280 287 291 290 292 295 295 292 291 292 292 291 291 293 296 298 301 303 305 306 307 308 310 314 317 321 323 325 325 323 318 309 301 297 295 293 291 288 286 284 281 279 278 279 282 285 285 282 278 274 272 268 260 255 258 262 266 273
242 242 242 239 236 238 244 247 249 252 254 255 255 254 255 255 257 260 264 265 268 270 267 264 263 266 277 285 289 292 290 288 290 293 290 288 289 291 291 291 292 294 298 300 302 304 304 306 307 309 313 316 319 321 323 323 321 318 309 299 295 294 293 292 290 287 283 281 280 280 281 284 287 288 285 280 275 271 269 263 256 256 261 265 272
242 240 239 241 239 236 240 245 248 251 252 254 255 255 255 255 256 260 266 270 270 269 265 262 261 265 279 288 290 292 290 286 286 289 289 287 287 288 290 292 291 292 295 299 300 301 302 304 306 308 312 316 319 320 322 322 320 317 310 300 292 291 291 291 290 287 285 282 281 281 283 285 287 288 287 284 279 272 268 263 257 256 260 265 270
244 242 240 241 242 239 239 241 244 247 249 252 255 256 257 257 259 262 266 266 264 265 264 262 261 266 280 289 289 290 288 285 284 285 287 287 287 288 289 290 291 290 292 296 297 299 300 303 305 307 312 315 317 319 321 321 320 317 312 303 292 288 288 288 288 287 285 283 282 281 283 286 288 290 289 288 283 275 267 261 256 256 261 266 271
246 246 244 242 244 243 242 242 242 243 244 248 252 255 255 257 260 263 265 263 261 262 262 262 262 266 279 287 287 287 285 284 283 283 285 286 287 288 289 289 289 289 289 291 293 296 298 301 304 305 310 313 315 318 319 320 319 318 314 307 295 286 284 285 286 285 284 282 280 279 281 284 287 290 290 290 287 279 269 259 256 257 261 267 272
245 245 245 243 244 245 245 244 244 243 244 246 250 252 252 253 256 259 260 262 262 260 259 261 261 266 277 284 283 283 282 282 281 282 284 284 285 287 288 288 287 288 288 288 289 293 296 300 302 304 309 312 313 315 317 318 319 318 315 309 299 286 281 282 282 283 281 278 276 275 276 279 283 287 288 288 289 284 273 261 258 260 264 268 272
243 243 244 243 244 246 246 246 246 245 246 247 249 251 252 252 254 255 254 256 257 256 257 259 262 268 276 280 280 278 279 281 281 282 284 284 284 285 286 286 286 287 287 286 286 290 294 298 300 303 308 310 312 314 315 317 318 317 315 310 301 287 280 279 279 278 277 275 272 271 271 274 278 283 285 285 286 284 276 267 263 264 267 269 272
240 241 241 242 242 244 246 247 248 248 247 248 249 250 251 252 254 254 254 254 254 255 258 262 266 270 275 277 276 274 277 281 281 281 283 284 283 283 283 282 283 285 286 285 285 287 293 297 299 302 307 309 311 313 315 316 316 316 314 309 301 288 278 277 277 276 275 274 273 271 269 271 274 278 281 282 281 281 278 272 269 268 269 271 273
239 240 240 240 240 240 243 245 246 248 249 249 250 251 252 252 253 255 256 257 256 257 260 264 268 271 274 276 272 271 277 282 279 281 285 283 281 280 279 278 280 282 283 284 284 286 291 295 298 302 306 307 309 312 314 315 315 314 313 309 301 290 280 276 276 275 274 274 274 273 270 268 270 273 276 278 278 278 278 275 273 271 271 272 273
239 238 239 239 239 238 238 238 240 245 247 248 249 250 251 252 253 255 257 258 258 259 261 264 267 271 274 274 270 268 277 281 276 280 283 279 277 276 274 275 276 278 281 282 284 286 289 292 296 302 305 306 307 310 312 312 312 312 311 307 299 289 280 275 274 275 274 273 273 273 272 268 266 268 271 274 276 278 278 277 276 274 273 273 272
243 240 239 239 239 238 236 235 237 241 242 243 245 247 249 251 252 254 256 258 259 261 262 264 268 272 272 271 269 271 278 279 274 276 276 273 273 272 271 271 273 276 279 282 284 286 288 290 294 300 304 305 306 309 310 310 310 311 309 305 299 288 278 271 269 271 272 272 272 272 273 270 265 265 267 271 274 276 278 278 279 278 276 274 272
247 244 241 240 240 239 238 236 237 239 241 241 243 247 250 250 250 252 254 255 258 261 262 264 268 271 270 269 269 275 280 277 272 273 272 270 271 269 269 270 271 274 278 282 285 286 288 289 292 297 301 303 305 307 308 308 309 311 309 305 299 291 280 270 266 266 268 270 271 272 273 272 268 265 266 269 271 273 275 278 280 280 279 277 274
250 248 243 240 239 239 238 238 238 239 241 243 244 247 249 250 250 250 252 253 256 258 260 263 266 268 268 269 271 277 280 274 271 273 273 271 270 269 269 270 272 274 278 283 286 287 288 290 292 297 300 301 303 306 308 308 309 310 308 302 296 291 284 275 268 266 267 269 270 271 272 272 271 267 265 266 268 269 272 275 277 279 280 279 276
250 249 244 240 237 236 237 238 239 239 240 242 245 246 247 247 248 249 250 252 254 256 258 261 262 264 266 269 273 279 279 272 271 273 273 272 270 269 269 271 273 276 280 284 286 287 288 290 293 297 300 300 303 306 308 308 308 308 306 301 295 290 286 280 272 267 266 268 269 269 269 270 270 267 265 264 265 267 269 271 273 275 277 279 278
246 246 244 240 237 236 236 237 238 239 239 241 244 246 246 245 245 249 250 251 253 255 256 258 260 261 265 268 272 277 277 272 271 272 273 273 271 270 270 273 275 278 282 284 286 287 288 291 295 298 299 300 303 306 308 307 307 307 304 299 294 290 288 284 277 271 267 266 267 267 267 268 268 267 264 263 263 264 266 269 271 272 274 277 279
242 240 238 237 236 236 237 236 236 238 240 241 243 244 245 245 245 247 249 250 252 253 255 257 259 261 265 268 272 274 274 273 272 270 272 273 271 272 272 274 277 279 282 284 285 286 288 292 296 299 299 301 305 308 308 308 308 306 303 297 293 289 287 285 282 276 270 267 266 266 266 266 267 267 266 265 264 264 264 265 267 270 273 276 279
238 235 232 232 233 234 237 237 236 236 239 240 241 242 243 243 244 245 246 248 249 250 253 255 257 260 265 269 270 272 273 274 273 270 271 273 272 273 274 275 278 280 283 285 285 285 288 293 297 299 300 303 307 309 309 308 308 306 301 296 292 288 285 284 283 280 274 268 266 265 265 265 266 266 266 266 266 265 263 262 263 267 271 274 277
234 229 226 227 230 233 237 240 238 236 237 239 240 241 241 241 241 242 243 244 245 247 249 251 255 259 264 267 268 271 274 275 274 271 271 272 273 274 275 276 278 280 283 285 285 286 290 294 298 300 302 305 308 309 309 308 307 305 300 296 292 288 284 282 281 281 278 272 267 265 265 265 265 265 265 266 266 265 264 263 263 264 268 271 274
226 222 220 223 226 228 233 240 241 239 237 237 238 239 240 241 241 241 240 241 242 244 246 248 254 258 262 266 266 269 274 275 274 271 270 272 274 275 276 277 279 282 284 284 284 288 292 296 299 301 303 305 307 309 309 308 306 304 300 297 293 289 284 280 278 278 278 275 270 267 265 265 266 266 265 266 267 267 267 266 266 266 267 268 271
220 218 218 221 222 222 225 234 238 241 241 237 237 238 239 239 240 241 240 241 243 245 248 251 255 259 263 266 267 269 271 272 272 270 270 273 274 274 277 278 280 284 285 284 286 289 293 297 299 300 302 304 307 309 309 307 305 303 300 297 294 291 285 280 277 275 274 273 272 269 266 266 266 266 266 266 267 269 269 269 269 269 269 269 270
215 217 217 216 219 221 223 228 230 237 242 240 239 238 238 238 239 242 242 242 244 246 250 254 257 260 262 265 268 270 267 267 268 267 269 274 274 275 276 278 281 284 286 286 289 292 295 297 298 299 300 304 308 309 308 306 304 302 299 296 293 290 286 281 277 275 272 271 270 270 268 266 267 267 267 268 268 269 271 271 271 270 270 270 270
216 222 220 212 214 224 229 228 227 234 242 242 241 238 238 238 238 241 242 243 245 247 250 254 258 260 261 264 268 268 263 262 264 264 268 273 275 276 276 278 282 284 285 287 290 293 295 297 297 298 301 305 309 309 307 305 304 302 299 296 292 287 284 280 277 275 273 270 268 268 268 267 266 267 268 268 269 269 271 271 272 272 273 273 271
218 223 223 215 213 224 231 232 232 236 242 242 240 238 237 237 238 240 241 243 244 246 249 253 257 260 261 262 265 265 261 260 262 262 267 272 275 276 276 279 282 284 286 288 290 293 295 295 296 299 303 307 310 309 306 305 304 302 300 298 293 288 283 279 276 275 274 272 269 267 267 266 266 266 267 268 268 269 270 271 272 273 275 276 275
221 225 227 223 218 223 229 234 236 232 232 232 232 233 234 235 236 237 238 239 242 245 249 253 256 258 259 261 264 263 259 260 260 260 264 270 274 275 276 280 282 283 285 287 291 294 294 294 297 301 305 309 310 308 307 306 305 304 301 299 295 290 285 280 277 275 274 272 270 269 268 267 266 265 266 266 267 268 269 271 272 273 276 279 279
225 228 229 226 221 222 226 230 230 224 221 221 224 229 231 233 235 236 236 238 241 243 246 250 253 255 257 260 262 261 260 260 258 257 262 270 275 277 278 281 282 283 285 289 292 292 292 295 300 304 307 309 309 308 307 307 306 304 301 297 294 291 287 283 280 278 276 273 271 270 268 267 266 266 265 266 266 267 269 270 271 272 275 279 280
226 228 229 227 223 221 223 224 222 220 220 223 229 234 232 233 234 235 237 239 241 241 243 247 250 253 256 258 260 261 262 259 255 255 263 272 277 279 280 281 282 284 287 291 292 291 294 299 304 307 308 308 308 308 308 307 305 302 299 297 295 293 291 288 285 283 281 277 274 271 269 268 267 267 266 266 266 267 268 269 271 271 273 276 278
224 228 229 228 226 222 220 221 221 222 226 231 238 239 236 234 233 234 236 239 240 239 240 243 247 250 253 256 260 262 261 255 252 258 267 275 279 280 281 281 282 286 289 290 290 293 299 304 307 308 308 307 308 309 308 306 304 301 299 298 297 296 294 292 290 287 285 282 278 274 271 269 268 268 267 267 268 267 267 268 270 272 273 275 276
219 224 228 229 227 222 220 220 223 229 234 239 241 239 236 234 232 233 236 237 236 234 236 239 243 247 251 256 261 262 257 251 254 264 270 275 279 280 280 281 284 287 288 288 292 299 304 306 307 307 307 308 309 309 308 306 303 301 300 300 300 299 298 297 294 291 289 286 283 280 275 272 271 269 268 268 268 268 268 267 269 270 272 273 275
216 218 225 229 229 226 223 222 225 232 238 240 239 236 235 234 234 238 240 239 235 232 234 237 242 247 252 257 261 261 257 255 263 269 270 274 278 278 279 282 284 285 286 291 297 303 306 306 306 307 307 308 309 309 308 305 302 302 302 304 304 304 303 301 298 294 292 290 288 286 281 277 274 273 271 270 269 269 268 268 269 270 271 272 273
214 213 216 226 231 229 226 224 225 230 235 235 233 233 235 235 237 241 242 239 236 235 235 238 243 247 251 255 259 263 265 266 269 269 270 274 275 276 278 280 281 283 289 295 301 304 305 305 306 307 308 308 308 308 307 305 304 305 307 308 307 307 307 305 301 296 293 294 295 295 293 282 277 279 279 277 275 273 271 270 270 270 270 271 272
213 210 208 218 229 229 226 225 225 227 229 229 229 230 233 235 238 241 241 236 235 235 236 239 244 246 248 253 257 262 266 267 267 268 270 272 273 274 275 276 279 286 293 297 301 304 304 305 306 308 308 307 307 306 305 306 307 308 308 307 306 308 310 313 312 303 296 303 308 310 305 282 276 281 282 282 282 278 276 275 274 273 273 272 272
210 207 203 209 223 228 225 225 225 224 224 224 225 226 228 233 237 240 239 235 233 233 236 240 243 245 246 250 254 258 260 262 265 267 268 269 271 273 273 277 283 289 293 297 301 303 304 306 307 308 307 306 306 304 305 307 308 307 302 300 306 309 313 322 325 317 305 316 329 326 309 284 280 283 281 282 283 282 283 284 282 280 279 277 275
207 204 202 205 218 227 226 225 223 222 222 221 220 222 223 227 232 236 237 234 231 231 235 238 240 243 245 247 251 254 256 260 264 265 264 265 269 272 275 280 286 290 294 298 301 302 304 307 308 308 306 305 304 303 305 307 305 300 295 298 308 313 318 325 327 326 320 324 334 327 311 301 300 295 285 281 284 289 291 291 289 286 283 281 279
204 201 203 204 214 224 226 223 221 220 220 218 218 219 219 222 226 229 231 229 226 227 232 235 238 241 242 244 248 251 254 259 261 262 262 264 270 274 278 283 287 290 294 297 300 302 305 308 308 306 304 303 302 303 305 305 299 292 291 298 309 315 319 322 323 325 324 323 326 323 316 315 313 306 296 289 292 299 301 297 294 290 286 283 281
Height
10878 10880 10881 10882 10883 10885 10886 10887 10887 10887 10887 10887 10887 10887 10887 10888 10889 10889 10889 10889 10890 10890 10889 10889 10888 10888 10887 10886 10886 10886 10886 10885 10883 10882 10882 10881 10881 10880 10880 10879 10877 10876 10875 10875 10874 10873 10871 10870 10868 10867 10866 10864 10863 10861 10859 10857 10854 10852 10849 10847 10846 10844 10843 10843 10842 10842 10842 10842 10842 10842 10841 10841 10841 10841 10841 10840 10840 10839 10839 10839 10838 10837 10836 10835 10834
10874 10876 10878 10879 10880 10882 10883 10883 10884 10884 10884 10884 10884 10884 10884 10885 10886 10886 10887 10887 10887 10888 10887 10887 10886 10885 10885 10884 10884 10884 10883 10882 10881 10880 10880 10879 10879 10878 10877 10877 10875 10874 10873 10873 10872 10871 10869 10868 10867 10865 10864 10862 10860 10859 10857 10854 10852 10849 10847 10845 10844 10842 10841 10841 10841 10841 10840 10840 10840 10840 10840 10840 10840 10840 10840 10839 10839 10839 10838 10838 10837 10836 10835 10833 10832
10870 10873 10875 10876 10877 10878 10879 10880 10881 10881 10881 10882 10881 10881 10882 10883 10884 10884 10885 10885 10886 10886 10885 10884 10884 10883 10883 10882 10882 10882 10881 10880 10879 10878 10878 10877 10877 10876 10875 10875 10874 10872 10872 10872 10871 10869 10868 10866 10865 10864 10862 10860 10858 10856 10854 10852 10850 10847 10845 10843 10842 10841 10840 10839 10839 10839 10839 10839 10839 10839 10839 10838 10838 10839 10839 10838 10838 10838 10837 10837 10836 10835 10833 10832 10831
10868 10870 10871 10872 10873 10874 10875 10877 10878 10878 10878 10879 10879 10879 10880 10881 10882 10882 10883 10883 10884 10883 10883 10883 10882 10881 10881 10880 10880 10879 10879 10878 10877 10876 10876 10875 10875 10874 10874 10873 10872 10871 10870 10870 10869 10867 10866 10865 10863 10862 10860 10858 10856 10854 10852 10850 10848 10845 10843 10842 10840 10839 10838 10838 10838 10838 10838 10838 10838 10838 10837 10837 10837 10837 10837 10837 10837 10836 10836 10835 10835 10834 10832 10831 10830
10865 10866 10867 10868 10868 10870 10872 10874 10875 10875 10876 10876 10877 10877 10878 10878 10880 10881 10881 10882 10881 10881 10881 10881 10880 10879 10879 10878 10878 10877 10877 10876 10875 10875 10874 10873 10873 10872 10872 10871 10870 10869 10869 10869 10867 10866 10865 10863 10862 10860 10859 10857 10855 10852 10850 10848 10846 10844 10842 10840 10839 10838 10837 10836 10836 10836 10836 10837 10836 10836 10836 10836 10836 10836 10836 10836 10835 10835 10835 10834 10833 10832 10831 10830 10829
10862 10863 10863 10864 10865 10866 10868 10871 10871 10872 10873 10874 10874 10874 10875 10876 10878 10879 10879 10879 10879 10879 10879 10879 10878 10878 10877 10876 10876 10875 10874 10874 10873 10873 10872 10872 10871 10871 10870 10869 10868 10867 10867 10867 10866 10864 10863 10862 10860 10859 10857 10855 10853 10850 10848 10846 10844 10842 10840 10838 10837 10836 10836 10835 10835 10835 10835 10835 10835 10835 10834 10834 10834 10834 10834 10834 10834 10833 10833 10833 10832 10831 10830 10829 10828
10857 10859 10860 10862 10861 10862 10865 10867 10868 10869 10870 10871 10871 10872 10874 10875 10876 10877 10877 10877 10877 10877 10877 10877 10876 10875 10875 10874 10873 10873 10872 10872 10871 10871 10870 10870 10869 10869 10868 10868 10866 10865 10866 10865 10864 10863 10861 10860 10859 10857 10855 10854 10851 10849 10846 10844 10842 10840 10838 10837 10836 10835 10834 10833 10833 10833 10834 10833 10833 10833 10833 10833 10833 10833 10833 10832 10832 10832 10832 10831 10831 10830 10829 10828 10827
10853 10855 10857 10859 10859 10860 10862 10863 10864 10866 10867 10868 10869 10871 10872 10873 10873 10874 10874 10874 10875 10875 10875 10875 10874 10873 10873 10872 10871 10871 10870 10870 10869 10868 10868 10868 10867 10867 10867 10866 10864 10864 10864 10864 10862 10861 10860 10859 10857 10856 10854 10852 10850 10847 10844 10842 10840 10838 10836 10835 10834 10833 10833 10832 10831 10832 10832 10832 10832 10832 10832 10831 10831 10831 10831 10831 10831 10830 10830 10830 10829 10828 10827 10827 10826
10849 10851 10852 10855 10857 10857 10859 10859 10861 10863 10864 10866 10867 10868 10869 10870 10871 10871 10872 10872 10872 10872 10873 10873 10873 10872 10871 10870 10869 10869 10868 10867 10867 10866 10866 10866 10865 10865 10865 10864 10863 10862 10862 10862 10861 10860 10858 10857 10856 10854 10852 10850 10848 10845 10843 10840 10838 10836 10834 10833 10832 10831 10831 10831 10830 10830 10830 10830 10830 10830 10830 10830 10830 10829 10829 10829 10829 10829 10828 10828 10828 10827 10826 10825 10824
10845 10847 10849 10852 10854 10854 10855 10856 10858 10860 10861 10862 10863 10864 10866 10868 10869 10869 10869 10870 10870 10870 10871 10871 10871 10870 10869 10868 10867 10867 10866 10865 10865 10864 10864 10863 10863 10863 10863 10863 10861 10860 10860 10860 10859 10858 10857 10855 10854 10853 10851 10849 10846 10844 10841 10839 10836 10834 10833 10831 10830 10829 10829 10829 10828 10829 10829 10828 10829 10829 10829 10829 10828 10827 10827 10827 10827 10826 10826 10826 10826 10825 10824 10824 10823
10841 10843 10845 10848 10850 10851 10852 10853 10855 10857 10858 10859 10861 10861 10863 10865 10865 10866 10867 10867 10867 10868 10869 10870 10869 10868 10867 10866 10866 10865 10864 10863 10862 10862 10862 10861 10861 10861 10861 10861 10860 10858 10859 10859 10857 10856 10855 10854 10852 10851 10850 10847 10845 10842 10840 10838 10835 10833 10831 10830 10828 10827 10827 10827 10826 10827 10827 10827 10827 10827 10827 10827 10826 10825 10825 10824 10824 10824 10824 10824 10824 10823 10822 10822 10821
10838 10839 10841 10844 10846 10848 10849 10850 10852 10853 10855 10856 10858 10859 10860 10861 10862 10863 10864 10865 10866 10867 10867 10867 10867 10866 10866 10865 10864 10863 10862 10861 10860 10860 10859 10859 10859 10860 10860 10859 10858 10856 10857 10857 10856 10854 10853 10852 10850 10849 10848 10846 10844 10841 10839 10836 10834 10832 10830 10828 10827 10826 10825 10825 10824 10824 10825 10825 10825 10825 10825 10825 10824 10823 10823 10822 10821 10822 10822 10822 10822 10821 10821 10820 10819
10833 10836 10838 10840 10842 10844 10845 10847 10848 10850 10851 10853 10855 10856 10858 10858 10859 10861 10862 10863 10864 10865 10865 10865 10865 10864 10864 10863 10863 10862 10861 10860 10859 10858 10857 10857 10857 10858 10858 10857 10856 10855 10855 10855 10854 10852 10851 10850 10848 10847 10846 10844 10842 10840 10837 10835 10832 10830 10828 10827 10826 10824 10824 10824 10823 10823 10823 10823 10823 10823 10823 10823 10822 10822 10821 10820 10819 10819 10820 10820 10820 10819 10819 10818 10818
10830 10832 10834 10836 10838 10840 10841 10843 10844 10845 10847 10850 10852 10853 10855 10855 10857 10858 10859 10860 10861 10862 10862 10863 10863 10863 10862 10862 10861 10860 10860 10858 10857 10856 10855 10855 10855 10856 10856 10855 10854 10853 10852 10853 10852 10851 10849 10848 10846 10845 10844 10842 10840 10838 10835 10833 10831 10829 10827 10826 10824 10823 10822 10822 10822 10821 10821 10821 10821 10821 10820 10820 10820 10819 10819 10818 10817 10817 10817 10818 10818 10817 10817 10816 10816
10827 10829 10830 10832 10834 10836 10838 10839 10839 10841 10844 10847 10849 10850 10851 10853 10854 10856 10857 10858 10859 10860 10860 10861 10861 10861 10861 10860 10860 10859 10859 10857 10855 10854 10853 10853 10853 10854 10854 10853 10852 10851 10850 10851 10850 10849 10847 10846 10844 10843 10842 10840 10838 10835 10833 10831 10829 10827 10826 10824 10823 10822 10821 10821 10820 10819 10819 10819 10819 10818 10818 10817 10817 10817 10816 10816 10815 10815 10815 10815 10815 10815 10815 10814 10814
10824 10825 10827 10828 10831 10833 10834 10835 10835 10836 10840 10843 10845 10846 10848 10850 10851 10853 10854 10855 10856 10857 10857 10858 10859 10859 10859 10858 10858 10858 10857 10856 10854 10852 10851 10850 10851 10852 10852 10851 10850 10849 10848 10848 10848 10847 10845 10844 10843 10841 10840 10838 10836 10833 10831 10829 10827 10826 10824 10823 10821 10820 10819 10819 10818 10817 10817 10817 10816 10816 10815 10815 10815 10815 10814 10814 10813 10813 10813 10813 10813 10813 10812 10812 10812
10821 10822 10823 10824 10826 10828 10828 10830 10831 10833 10838 10840 10841 10843 10844 10847 10848 10850 10852 10852 10853 10854 10855 10856 10857 10857 10857 10856 10856 10856 10855 10854 10852 10850 10849 10848 10848 10849 10850 10850 10849 10847 10845 10846 10846 10845 10843 10842 10841 10839 10838 10836 10834 10832 10830 10828 10826 10824 10822 10821 10819 10818 10818 10817 10816 10815 10815 10815 10814 10814 10813 10813 10813 10813 10812 10811 10811 10810 10810 10811 10811 10810 10810 10810 10810
10817 10818 10820 10821 10823 10823 10824 10826 10828 10831 10835 10837 10838 10840 10842 10844 10845 10846 10848 10849 10850 10851 10852 10853 10854 10855 10855 10854 10854 10853 10853 10853 10851 10849 10847 10846 10845 10846 10847 10848 10847 10846 10843 10843 10843 10843 10841 10840 10839 10837 10836 10834 10833 10831 10829 10827 10825 10823 10821 10819 10818 10816 10816 10815 10814 10813 10813 10812 10812 10812 10811 10810 10810 10810 10810 10809 10808 10808 10808 10808 10808 10808 10808 10807 10807
10814 10815 10816 10817 10819 10820 10821 10824 10826 10828 10831 10832 10834 10837 10839 10841 10841 10842 10843 10845 10847 10848 10849 10851 10852 10852 10852 10852 10851 10851 10850 10850 10849 10848 10846 10844 10843 10843 10844 10845 10846 10844 10842 10840 10840 10840 10839 10838 10837 10835 10834 10832 10830 10829 10827 10825 10824 10822 10819 10818 10816 10815 10814 10813 10812 10811 10811 10810 10810 10809 10809 10808 10808 10808 10807 10806 10806 10805 10805 10805 10805 10805 10805 10805 10805
10811 10812 10813 10813 10814 10817 10818 10820 10823 10825 10827 10828 10830 10833 10835 10837 10838 10839 10840 10842 10843 10844 10846 10847 10849 10849 10850 10850 10849 10848 10848 10848 10847 10846 10844 10843 10841 10840 10841 10842 10843 10843 10841 10838 10837 10837 10837 10836 10834 10833 10831 10829 10827 10826 10824 10823 10821 10820 10818 10816 10815 10814 10812 10811 10810 10809 10809 10808 10808 10807 10807 10806 10805 10805 10805 10804 10803 10803 10803 10803 10803 10803 10803 10803 10803
10807 10808 10811 10810 10810 10813 10815 10817 10820 10822 10824 10825 10826 10829 10830 10833 10834 10836 10838 10839 10840 10841 10842 10844 10845 10846 10847 10848 10847 10846 10845 10845 10845 10843 10842 10841 10839 10838 10838 10839 10840 10841 10839 10837 10834 10834 10834 10834 10832 10831 10829 10827 10825 10823 10821 10820 10819 10817 10816 10814 10813 10812 10811 10809 10808 10807 10807 10806 10806 10805 10804 10804 10803 10803 10802 10801 10801 10800 10800 10800 10800 10800 10800 10800 10800
10801 10803 10807 10808 10807 10808 10811 10814 10817 10819 10821 10822 10823 10825 10827 10828 10830 10832 10834 10836 10837 10838 10839 10841 10842 10843 10844 10845 10845 10843 10843 10843 10842 10841 10839 10838 10837 10836 10835 10836 10837 10837 10837 10835 10833 10831 10831 10831 10830 10829 10827 10825 10823 10821 10819 10817 10816 10815 10813 10812 10811 10810 10809 10807 10806 10805 10805 10804 10804 10803 10802 10801 10800 10800 10800 10799 10798 10798 10797 10798 10798 10798 10798 10798 10798
10796 10797 10800 10803 10803 10803 10806 10810 10812 10815 10818 10819 10821 10822 10824 10826 10827 10829 10831 10832 10834 10835 10837 10838 10840 10841 10842 10843 10842 10841 10841 10841 10840 10838 10836 10836 10835 10834 10833 10833 10833 10834 10834 10834 10832 10829 10828 10828 10828 10827 10825 10823 10821 10819 10817 10815 10814 10813 10811 10810 10809 10808 10806 10805 10804 10803 10802 10802 10801 10800 10800 10799 10798 10798 10798 10797 10796 10796 10796 10796 10796 10796 10796 10796 10795
10788 10790 10792 10796 10799 10799 10802 10805 10808 10811 10814 10816 10817 10818 10820 10823 10825 10826 10828 10830 10831 10833 10834 10836 10837 10838 10839 10840 10840 10839 10839 10838 10837 10836 10834 10833 10833 10831 10831 10830 10830 10830 10830 10831 10830 10828 10826 10825 10825 10825 10823 10821 10818 10816 10814 10813 10812 10811 10809 10808 10806 10805 10803 10803 10802 10801 10800 10799 10798 10798 10797 10797 10796 10796 10795 10795 10795 10794 10794 10794 10794 10794 10794 10794 10793
10780 10783 10785 10788 10793 10795 10797 10800 10803 10806 10809 10811 10812 10814 10816 10819 10821 10823 10825 10827 10828 10830 10831 10833 10834 10834 10836 10837 10837 10837 10837 10836 10835 10833 10831 10831 10830 10829 10828 10828 10827 10826 10826 10827 10827 10827 10825 10823 10822 10822 10821 10819 10816 10813 10811 10810 10810 10808 10806 10805 10804 10802 10800 10800 10799 10798 10797 10797 10796 10796 10795 10795 10794 10794 10793 10793 10792 10792 10792 10792 10791 10791 10792 10791 10791
10774 10777 10779 10781 10785 10790 10793 10796 10797 10799 10802 10805 10807 10809 10811 10814 10817 10820 10822 10824 10825 10827 10828 10830 10830 10831 10833 10834 10834 10834 10834 10834 10832 10831 10828 10828 10828 10827 10826 10825 10824 10823 10823 10823 10824 10825 10824 10822 10820 10819 10818 10816 10814 10811 10809 10807 10807 10806 10803 10801 10800 10799 10797 10797 10796 10796 10795 10794 10794 10793 10793 10792 10792 10791 10791 10790 10790 10790 10789 10789 10789 10789 10789 10788 10788
10767 10769 10770 10773 10778 10783 10788 10791 10792 10794 10796 10799 10802 10804 10806 10810 10814 10817 10819 10820 10821 10823 10825 10826 10826 10828 10830 10831 10831 10831 10831 10830 10830 10828 10826 10825 10825 10824 10823 10822 10821 10820 10819 10820 10821 10822 10822 10821 10818 10816 10814 10813 10812 10809 10806 10804 10804 10804 10801 10799 10798 10796 10794 10794 10794 10793 10792 10792 10791 10791 10790 10789 10789 10788 10788 10788 10787 10787 10787 10787 10786 10786 10786 10785 10785
10760 10762 10765 10767 10771 10776 10782 10786 10787 10788 10791 10794 10797 10798 10801 10807 10810 10812 10815 10816 10817 10819 10821 10822 10823 10824 10826 10827 10829 10828 10828 10827 10826 10826 10823 10822 10822 10821 10820 10819 10818 10818 10817 10817 10818 10819 10819 10818 10817 10815 10812 10810 10809 10807 10804 10801 10800 10800 10799 10796 10795 10793 10791 10791 10791 10791 10790 10789 10788 10788 10787 10786 10786 10786 10785 10785 10785 10784 10784 10784 10784 10783 10783 10782 10782
10753 10757 10761 10763 10766 10770 10776 10780 10781 10783 10786 10790 10792 10794 10798 10803 10806 10808 10811 10812 10813 10815 10816 10818 10819 10820 10821 10824 10826 10825 10824 10823 10822 10822 10820 10819 10819 10818 10817 10816 10816 10815 10815 10814 10815 10815 10815 10815 10814 10813 10811 10808 10806 10804 10801 10798 10797 10797 10795 10793 10791 10790 10788 10787 10788 10788 10787 10786 10785 10785 10784 10783 10783 10783 10783 10782 10782 10782 10782 10781 10781 10781 10780 10779 10779
10746 10752 10756 10757 10761 10764 10769 10772 10775 10778 10782 10786 10788 10790 10794 10799 10801 10804 10807 10808 10809 10811 10812 10814 10816 10815 10816 10820 10822 10822 10821 10819 10819 10819 10817 10816 10816 10815 10814 10813 10813 10813 10812 10812 10812 10812 10812 10811 10811 10810 10808 10806 10803 10801 10798 10796 10795 10794 10792 10790 10789 10786 10784 10784 10784 10785 10784 10783 10783 10782 10781 10781 10780 10780 10780 10779 10779 10779 10779 10779 10778 10778 10777 10776 10776
10739 10745 10747 10749 10754 10758 10762 10766 10769 10773 10778 10783 10785 10787 10791 10795 10798 10800 10802 10804 10805 10806 10807 10810 10811 10811 10812 10816 10819 10819 10818 10816 10816 10816 10814 10813 10813 10812 10811 10810 10810 10810 10810 10809 10809 10808 10808 10808 10807 10807 10805 10803 10800 10798 10796 10793 10792 10791 10790 10788 10786 10783 10781 10780 10781 10781 10781 10781 10780 10779 10779 10778 10777 10777 10777 10776 10776 10776 10776 10776 10776 10775 10774 10773 10773
10732 10737 10739 10744 10749 10752 10756 10760 10765 10769 10773 10778 10780 10783 10787 10791 10794 10796 10798 10799 10801 10802 10803 10805 10806 10807 10809 10812 10814 10815 10815 10814 10813 10813 10811 10811 10810 10809 10809 10808 10808 10807 10807 10807 10806 10805 10805 10805 10804 10803 10802 10800 10797 10795 10793 10791 10789 10788 10787 10785 10783 10781 10778 10777 10777 10778 10779 10778 10777 10776 10776 10775 10774 10774 10774 10774 10773 10773 10773 10773 10773 10772 10771 10770 10770
10722 10728 10733 10739 10744 10747 10752 10756 10761 10765 10769 10773 10775 10778 10782 10786 10790 10792 10794 10796 10797 10798 10799 10801 10802 10803 10806 10808 10810 10811 10812 10811 10811 10810 10809 10808 10807 10806 10806 10805 10805 10805 10804 10803 10803 10802 10802 10802 10801 10800 10798 10796 10795 10792 10790 10788 10787 10785 10783 10782 10780 10778 10776 10774 10774 10775 10776 10775 10774 10774 10773 10772 10771 10771 10771 10771 10770 10770 10771 10770 10770 10769 10769 10768 10767
10715 10722 10729 10734 10738 10743 10748 10752 10757 10761 10764 10767 10770 10774 10778 10781 10785 10788 10790 10792 10794 10794 10796 10797 10798 10800 10802 10803 10805 10805 10807 10808 10809 10807 10806 10805 10804 10803 10803 10803 10803 10802 10801 10800 10799 10799 10799 10799 10798 10796 10795 10793 10791 10789 10786 10784 10783 10783 10781 10779 10778 10776 10773 10771 10771 10772 10773 10772 10771 10771 10771 10770 10769 10768 10768 10768 10768 10767 10767 10767 10767 10766 10766 10766 10765
10710 10716 10722 10726 10733 10739 10744 10748 10751 10756 10760 10763 10766 10769 10773 10776 10780 10783 10786 10789 10790 10791 10792 10793 10794 10796 10798 10799 10801 10801 10802 10804 10805 10805 10804 10802 10801 10801 10800 10801 10800 10799 10798 10797 10796 10796 10796 10796 10795 10793 10791 10789 10787 10785 10783 10780 10779 10779 10778 10776 10775 10774 10771 10769 10768 10769 10769 10769 10769 10768 10768 10767 10766 10766 10766 10766 10765 10765 10764 10764 10764 10764 10763 10763 10763
10702 10707 10713 10719 10727 10734 10738 10742 10746 10752 10756 10759 10763 10766 10769 10773 10775 10779 10782 10784 10786 10787 10788 10790 10791 10793 10794 10795 10797 10798 10799 10799 10801 10802 10801 10799 10798 10798 10798 10798 10797 10796 10795 10794 10793 10793 10793 10792 10791 10790 10788 10786 10784 10781 10779 10777 10776 10775 10774 10773 10772 10771 10769 10766 10765 10765 10766 10766 10765 10765 10765 10764 10764 10763 10764 10763 10763 10762 10761 10761 10761 10761 10761 10761 10760
10696 10701 10708 10715 10721 10728 10732 10737 10742 10746 10751 10755 10759 10762 10765 10769 10771 10774 10778 10780 10782 10784 10785 10787 10788 10790 10791 10790 10792 10796 10796 10796 10797 10798 10797 10796 10795 10795 10795 10795 10794 10793 10792 10791 10790 10790 10790 10789 10788 10787 10785 10783 10781 10778 10775 10773 10772 10772 10771 10770 10768 10767 10766 10763 10761 10762 10762 10762 10762 10762 10762 10761 10761 10760 10761 10761 10760 10759 10759 10758 10758 10758 10758 10758 10758
10691 10696 10703 10710 10717 10723 10729 10735 10740 10743 10747 10752 10755 10759 10762 10766 10768 10771 10774 10777 10778 10780 10782 10783 10784 10786 10788 10786 10787 10792 10794 10793 10794 10794 10794 10793 10792 10793 10793 10792 10791 10790 10789 10788 10787 10787 10786 10785 10784 10783 10782 10780 10778 10775 10771 10770 10769 10768 10767 10767 10765 10764 10763 10761 10758 10758 10758 10758 10759 10758 10758 10758 10758 10757 10757 10758 10757 10757 10756 10756 10755 10755 10755 10755 10755
10686 10692 10699 10707 10713 10721 10729 10735 10740 10743 10745 10748 10752 10756 10759 10763 10765 10768 10771 10772 10774 10776 10777 10779 10780 10782 10784 10783 10784 10788 10790 10791 10791 10791 10791 10790 10789 10790 10790 10789 10788 10787 10786 10785 10784 10784 10783 10782 10781 10780 10778 10777 10775 10771 10768 10767 10765 10764 10763 10763 10762 10761 10760 10758 10755 10754 10754 10754 10755 10754 10754 10755 10754 10754 10754 10754 10754 10754 10753 10753 10753 10752 10752 10752 10752
10680 10687 10696 10706 10713 10719 10728 10735 10738 10741 10742 10745 10749 10752 10755 10759 10761 10764 10767 10768 10769 10772 10774 10775 10777 10778 10780 10780 10782 10785 10787 10788 10788 10789 10789 10788 10787 10787 10786 10786 10785 10785 10784 10782 10781 10781 10780 10778 10778 10776 10775 10773 10771 10768 10765 10763 10762 10760 10759 10759 10759 10758 10758 10756 10753 10751 10751 10751 10751 10751 10751 10751 10751 10751 10750 10751 10751 10751 10751 10750 10750 10750 10750 10749 10749
10676 10685 10694 10704 10712 10717 10725 10732 10735 10738 10740 10742 10745 10747 10750 10753 10756 10758 10761 10762 10765 10768 10770 10772 10773 10774 10776 10777 10779 10782 10784 10785 10786 10786 10787 10786 10784 10783 10783 10783 10783 10782 10781 10780 10779 10778 10777 10776 10775 10773 10772 10770 10768 10765 10761 10760 10758 10757 10756 10755 10754 10754 10754 10753 10751 10748 10748 10748 10747 10747 10747 10747 10748 10747 10747 10747 10748 10748 10748 10747 10747 10747 10747 10746 10745
10675 10684 10693 10700 10708 10714 10721 10727 10731 10734 10736 10739 10741 10743 10746 10748 10750 10753 10755 10758 10761 10764 10767 10769 10769 10771 10773 10774 10776 10779 10782 10783 10783 10784 10784 10783 10782 10781 10780 10780 10780 10780 10779 10778 10777 10776 10774 10773 10772 10770 10768 10766 10765 10762 10758 10756 10755 10753 10752 10751 10750 10750 10750 10750 10748 10746 10745 10745 10745 10745 10744 10744 10744 10744 10744 10744 10744 10745 10745 10744 10744 10744 10745 10744 10743
10677 10684 10691 10696 10703 10711 10718 10723 10727 10729 10732 10735 10738 10740 10742 10744 10746 10749 10752 10754 10758 10761 10764 10766 10766 10767 10769 10771 10774 10776 10779 10780 10781 10782 10782 10780 10779 10778 10778 10778 10778 10777 10777 10776 10775 10773 10772 10770 10768 10766 10765 10763 10762 10760 10757 10754 10752 10750 10748 10747 10746 10745 10745 10745 10745 10743 10742 10742 10742 10742 10741 10740 10740 10740 10740 10740 10741 10742 10741 10741 10741 10741 10742 10741 10740
10677 10684 10688 10693 10700 10707 10713 10719 10722 10723 10727 10731 10735 10737 10739 10741 10743 10746 10749 10751 10755 10759 10762 10762 10762 10763 10765 10768 10771 10774 10776 10777 10778 10779 10779 10778 10777 10776 10775 10775 10775 10775 10774 10773 10772 10770 10769 10767 10765 10762 10761 10759 10758 10757 10755 10752 10749 10747 10745 10744 10743 10742 10742 10742 10742 10740 10739 10739 10739 10739 10739 10738 10737 10736 10736 10736 10737 10738 10738 10738 10737 10738 10739 10738 10738
10672 10682 10688 10692 10697 10704 10709 10713 10716 10718 10722 10727 10732 10736 10737 10738 10741 10744 10747 10749 10752 10756 10757 10757 10758 10760 10763 10766 10770 10772 10773 10775 10776 10777 10776 10776 10774 10773 10773 10773 10773 10773 10772 10771 10769 10768 10766 10764 10762 10759 10757 10756 10755 10754 10752 10750 10746 10744 10742 10741 10740 10740 10740 10739 10739 10738 10737 10736 10737 10737 10736 10735 10734 10733 10733 10733 10734 10734 10734 10734 10734 10735 10735 10735 10735
10663 10675 10685 10690 10694 10700 10705 10708 10711 10714 10718 10724 10730 10734 10735 10737 10740 10742 10744 10746 10749 10751 10752 10753 10756 10758 10761 10764 10768 10769 10770 10772 10773 10774 10774 10774 10772 10771 10770 10770 10770 10770 10770 10768 10767 10765 10763 10761 10759 10757 10755 10753 10751 10750 10749 10747 10744 10742 10741 10740 10739 10738 10738 10738 10738 10737 10736 10734 10734 10735 10735 10734 10732 10730 10730 10730 10730 10731 10730 10730 10730 10731 10732 10732 10733
10655 10665 10677 10686 10690 10695 10701 10703 10707 10712 10716 10722 10728 10731 10733 10735 10738 10740 10741 10744 10746 10748 10750 10752 10755 10757 10759 10762 10764 10766 10767 10769 10770 10771 10771 10771 10770 10769 10768 10768 10768 10768 10767 10766 10764 10762 10760 10758 10756 10754 10752 10750 10748 10747 10746 10744 10742 10740 10740 10739 10738 10737 10737 10736 10736 10735 10734 10733 10732 10733 10735 10735 10731 10729 10729 10728 10727 10727 10726 10727 10727 10727 10728 10728 10729
10647 10656 10669 10682 10687 10689 10695 10700 10704 10710 10714 10720 10725 10728 10730 10733 10735 10737 10739 10741 10744 10746 10748 10750 10752 10754 10756 10759 10761 10763 10765 10766 10767 10768 10769 10768 10767 10766 10766 10766 10766 10766 10765 10763 10761 10759 10757 10755 10753 10751 10749 10747 10746 10744 10743 10742 10740 10739 10738 10738 10737 10736 10736 10735 10734 10734 10733 10731 10731 10732 10734 10735 10731 10729 10729 10726 10724 10724 10723 10723 10723 10723 10723 10724 10724
10640 10652 10664 10676 10681 10682 10688 10695 10700 10705 10710 10716 10721 10724 10727 10730 10733 10735 10736 10739 10741 10744 10746 10748 10749 10751 10753 10756 10759 10760 10762 10763 10764 10765 10765 10765 10764 10763 10764 10764 10763 10763 10762 10761 10759 10757 10754 10752 10751 10749 10747 10745 10743 10741 10740 10740 10739 10738 10737 10737 10736 10735 10735 10734 10734 10733 10732 10730 10730 10731 10732 10732 10729 10728 10727 10724 10721 10721 10720 10719 10719 10719 10719 10719 10719
10633 10647 10657 10667 10673 10675 10682 10690 10696 10702 10708 10713 10717 10721 10724 10726 10729 10731 10733 10736 10738 10741 10743 10744 10745 10747 10750 10754 10756 10757 10758 10760 10761 10762 10762 10762 10762 10761 10761 10761 10761 10760 10759 10758 10756 10754 10752 10750 10748 10746 10744 10742 10740 10739 10739 10738 10737 10737 10736 10736 10735 10735 10734 10733 10733 10732 10731 10729 10729 10730 10730 10729 10728 10726 10724 10721 10719 10719 10719 10717 10716 10715 10715 10715 10714
10630 10642 10652 10661 10667 10671 10678 10686 10693 10699 10705 10711 10715 10718 10721 10723 10725 10726 10729 10732 10735 10737 10739 10740 10742 10744 10748 10751 10752 10753 10755 10757 10758 10758 10759 10759 10759 10759 10759 10760 10759 10758 10757 10755 10754 10752 10750 10748 10746 10743 10741 10739 10738 10737 10737 10737 10736 10735 10735 10735 10735 10734 10733 10732 10731 10731 10730 10729 10729 10729 10728 10728 10727 10725 10723 10721 10718 10718 10718 10716 10714 10713 10712 10711 10710